Location: Kampong Paya Jaras Dalam
(3.1833°N, 101.5500°E)
Time: 04:51:08
(UTC+00:00)

Tiangong - Pass Details

Date: 15 May 2026
Orbit: 381 x 392 km, 41.5° (Epoch: 7 June)

Event Time Altitude Azimuth Distance (km) Brightness Sun altitude
Rises 12:26:23 0° 223° (SW) 2,287 2.1 -16.9°
Reaches altitude 10° 12:28:28 10° 221° (SW) 1,431 1.0 -17.4°
Maximum altitude 12:31:41 74° 137° (SE) 413 -2.3 -18.1°
Enters shadow 12:32:06 62° 80° (E) 447 -2.2 -18.2°
